EW2706 Weather Reports


time (UTC)temp
C
wind
direction
speed
KPH
gust
KPH
rain 1hr
cm
rain 24hr
cm
rain mn
cm
humidity
%
barometer
mb
20260502203704 19 241 16.1 27.4 0.00 0.00 0.00 32 1011.8
20260502202632 18 216 20.9 35.4 0.00 0.00 0.00 33 1012.1
20260502201600 18 242 14.5 27.4 0.00 0.00 0.00 34 1012.1
20260502200559 18 245 12.9 32.2 0.00 0.00 0.00 34 1012.4
20260502195558 18 236 11.3 32.2 0.00 0.00 0.00 35 1012.8
20260502194557 17 239 9.7 30.6 0.00 0.00 0.00 34 1013.0
20260502193525 17 206 9.7 27.4 0.00 0.00 0.00 37 1013.0
20260502192524 17 235 19.3 30.6 0.00 0.00 0.00 34 1013.3
20260502191524 17 231 19.3 41.8 0.00 0.00 0.00 34 1013.3
20260502190522 17 204 17.7 27.4 0.00 0.00 0.00 36 1013.6
20260502185522 16 233 12.9 27.4 0.00 0.00 0.00 35 1014.0
20260502184521 16 219 17.7 27.4 0.00 0.00 0.00 35 1014.0
20260502183520 16 210 17.7 32.2 0.00 0.00 0.00 35 1014.3
20260502182417 16 213 9.7 37.0 0.00 0.00 0.00 35 1014.5
20260502181416 16 210 19.3 32.2 0.00 0.00 0.00 37 1014.5
20260502180414 15 227 9.7 25.7 0.00 0.00 0.00 38 1014.8
20260502170408 13 207 9.7 30.6 0.00 0.00 0.00 38 1015.7
20260502163406 13 225 12.9 27.4 0.00 0.00 0.00 41 1016.0
20260502162405 13 262 9.7 22.5 0.00 0.00 0.00 42 1016.4
20260502161404 12 248 9.7 27.4 0.00 0.00 0.00 40 1016.4
20260502160332 12 255 9.7 27.4 0.00 0.00 0.00 40 1016.4
20260502152258 11 234 12.9 27.4 0.00 0.00 0.00 45 1017.1
20260502151257 11 245 17.7 27.4 0.00 0.00 0.00 45 1017.1
20260502150255 11 225 14.5 22.5 0.00 0.00 0.00 48 1017.0
20260502140116 9 260 4.8 25.7 0.00 0.00 0.00 56 1017.3
20260502122955 5 242 3.2 8.0 0.00 0.00 0.00 70 1017.7
20260502121923 4 244 3.2 9.7 0.00 0.00 0.00 70 1017.7
20260502120922 3 244 1.6 8.0 0.00 0.00 0.00 71 1017.3
20260502115921 3 243 0.0 8.0 0.00 0.00 0.00 71 1017.3
20260502114920 3 244 1.6 4.8 0.00 0.00 0.00 71 1017.3
20260502113919 2 243 3.2 9.7 0.00 0.00 0.00 71 1017.2
20260502112847 2 244 0.0 0.0 0.00 0.00 0.00 70 1017.2
20260502111846 2 244 1.6 4.8 0.00 0.00 0.00 69 1017.2
20260502110845 2 245 0.0 3.2 0.00 0.00 0.00 68 1017.2
20260502105844 3 245 0.0 3.2 0.00 0.00 0.00 67 1017.2
20260502104813 3 245 1.6 4.8 0.00 0.00 0.00 67 1017.2
20260502103812 3 245 0.0 3.2 0.00 0.00 0.00 67 1017.2
20260502102811 3 245 1.6 3.2 0.00 0.00 0.00 67 1017.2
20260502101810 3 245 0.0 3.2 0.00 0.00 0.00 66 1017.3
20260502100809 3 245 0.0 4.8 0.00 0.00 0.00 65 1017.3
20260502090702 4 247 1.6 8.0 0.00 0.00 0.00 62 1017.3
20260502071520 3 265 0.0 3.2 0.00 0.00 0.00 63 1017.6
20260502070519 3 265 0.0 3.2 0.00 0.00 0.00 63 1017.5
20260502065518 4 265 0.0 4.8 0.00 0.00 0.00 62 1017.6
20260502064517 4 265 0.0 3.2 0.00 0.00 0.00 62 1017.5
20260502063414 3 265 0.0 4.8 0.00 0.00 0.00 63 1017.5
20260502062414 3 285 1.6 8.0 0.00 0.00 0.00 65 1017.5
20260502061413 2 327 0.0 3.2 0.00 0.00 0.00 67 1017.4
20260502060400 2 327 0.0 0.0 0.00 0.00 0.00 69 1017.4
20260502055358 2 327 0.0 0.0 0.00 0.00 0.00 69 1017.4
20260502054357 2 327 0.0 0.0 0.00 0.00 0.00 68 1017.5
20260502053356 2 327 0.0 0.0 0.00 0.00 0.00 67 1017.4
20260502052355 2 327 0.0 0.0 0.00 0.00 0.00 67 1017.5
20260502051323 2 327 0.0 0.0 0.00 0.00 0.00 67 1017.5
20260502050322 2 327 0.0 0.0 0.00 0.00 0.00 68 1017.4
20260502045321 2 327 0.0 0.0 0.00 0.00 0.00 67 1017.4
20260502044321 2 327 0.0 0.0 0.00 0.00 0.00 66 1017.4
20260502043320 3 327 0.0 0.0 0.00 0.00 0.00 66 1017.4
20260502042319 3 327 0.0 0.0 0.00 0.00 0.00 64 1017.4
20260502041318 3 327 0.0 0.0 0.00 0.00 0.00 63 1017.4
20260502040318 3 327 0.0 0.0 0.00 0.00 0.00 62 1017.1
20260502035317 3 327 0.0 0.0 0.00 0.00 0.00 61 1017.1
20260502034245 4 327 0.0 0.0 0.00 0.00 0.00 59 1017.4
20260502033213 5 327 0.0 0.0 0.00 0.00 0.00 57 1017.5
20260502032212 5 327 0.0 0.0 0.00 0.00 0.00 57 1017.5
20260502031212 5 327 0.0 0.0 0.00 0.00 0.00 57 1017.5
20260502030211 5 327 0.0 0.0 0.00 0.00 0.00 59 1017.5
20260502025210 5 327 0.0 0.0 0.00 0.00 0.00 58 1017.4
20260502024209 5 327 0.0 0.0 0.00 0.00 0.00 57 1017.4
20260502023208 5 327 0.0 0.0 0.00 0.00 0.00 58 1017.5
20260502022207 5 327 0.0 3.2 0.00 0.00 0.00 56 1017.5
20260502021206 6 327 0.0 0.0 0.00 0.00 0.00 54 1017.1
20260502020205 6 327 0.0 0.0 0.00 0.00 0.00 52 1017.2
20260502015205 7 327 0.0 0.0 0.00 0.00 0.00 50 1017.2
20260502014133 7 327 0.0 0.0 0.00 0.00 0.00 47 1016.9
20260502013132 8 327 0.0 0.0 0.00 0.00 0.00 45 1017.0
20260502012131 9 327 0.0 0.0 0.00 0.00 0.00 42 1017.0
20260502011130 10 327 0.0 0.0 0.00 0.00 0.00 38 1017.0
20260502010130 10 327 0.0 4.8 0.00 0.00 0.00 37 1017.0
20260502005057 10 327 1.6 8.0 0.00 0.00 0.00 37 1017.0
20260502004057 10 299 4.8 12.9 0.00 0.00 0.00 36 1017.0
20260502003056 11 318 3.2 17.7 0.00 0.00 0.00 35 1017.0
20260502002055 11 342 4.8 12.9 0.00 0.00 0.00 35 1017.0
20260502001054 12 313 3.2 17.7 0.00 0.00 0.00 34 1017.0
20260502000053 12 330 1.6 12.9 0.00 0.00 0.00 34 1016.7
20260501235052 12 301 6.4 9.7 0.00 0.00 0.00 35 1017.0
20260501234051 11 305 3.2 9.7 0.00 0.00 0.00 35 1017.0
20260501233050 11 355 3.2 12.9 0.00 0.00 0.00 39 1016.9
20260501232049 11 320 4.8 17.7 0.00 0.00 0.00 37 1016.9
20260501231048 11 345 3.2 9.7 0.00 0.00 0.00 37 1016.9
20260501230047 11 5 1.6 9.7 0.00 0.00 0.00 36 1016.9
20260501225047 10 351 3.2 9.7 0.00 0.00 0.00 38 1016.9
20260501224046 11 20 4.8 9.7 0.00 0.00 0.00 37 1017.0
20260501223045 11 346 4.8 14.5 0.00 0.00 0.00 36 1017.0
20260501222013 11 328 4.8 19.3 0.00 0.00 0.00 35 1017.0
20260501221012 12 45 6.4 19.3 0.00 0.00 0.00 35 1017.1
20260501220011 12 21 4.8 14.5 0.00 0.00 0.00 37 1017.0
20260501215011 10 86 9.7 17.7 0.00 0.00 0.00 39 1016.9
20260501213939 10 33 6.4 12.9 0.00 0.00 0.00 39 1016.9
20260501212938 11 37 4.8 12.9 0.00 0.00 0.00 37 1016.9
20260501211937 10 22 3.2 12.9 0.00 0.00 0.00 38 1016.9
20260501210936 11 23 8.0 17.7 0.00 0.00 0.00 37 1017.3
20260501205936 11 321 8.0 19.3 0.00 0.00 0.00 38 1017.3
20260501204935 11 287 6.4 25.7 0.00 0.00 0.00 36 1017.3